This is the latest recevied weather packets stored in our database for station/object KE5AKC. If no packets are shown the sender has not sent any weather packets the latest 10 day(s).
| Time | Temp. | Humidity | Pressure | Rain* | Wind** | Luminosity | Snow |
|---|---|---|---|---|---|---|---|
| 1777824009 | 25.56° C | 35% | 1022.9 hPa | 0 mm | - | 809 W/m² | - |
| 1777823706 | 25.56° C | 39% | 1022.9 hPa | 0 mm | - | 793 W/m² | - |
| 1777823403 | 25° C | 39% | 1023.2 hPa | 0 mm | - | 778 W/m² | - |
| 1777823100 | 25° C | 39% | 1022.9 hPa | 0 mm | - | 763 W/m² | - |
| 1777822798 | 24.44° C | 37% | 1023.2 hPa | 0 mm | - | 748 W/m² | - |
| 1777822496 | 24.44° C | 36% | 1022.9 hPa | 0 mm | - | 735 W/m² | - |
| 1777822193 | 24.44° C | 37% | 1022.9 hPa | 0 mm | - | 718 W/m² | - |
| 1777821890 | 23.89° C | 39% | 1022.9 hPa | 0 mm | - | 703 W/m² | - |
| 1777821588 | 24.44° C | 38% | 1022.9 hPa | 0 mm | - | 682 W/m² | - |
| 1777821285 | 23.89° C | 44% | 1022.9 hPa | 0 mm | - | 668 W/m² | - |
| 1777820982 | 23.89° C | 39% | 1022.9 hPa | 0 mm | - | 649 W/m² | - |
| 1777820673 | 23.89° C | 44% | 1022.9 hPa | 0 mm | - | 631 W/m² | - |
| 1777820369 | 23.33° C | 44% | 1022.9 hPa | 0 mm | - | 613 W/m² | - |
| 1777820067 | 23.89° C | 44% | 1022.9 hPa | 0 mm | - | 596 W/m² | - |
| 1777819764 | 23.33° C | 45% | 1022.9 hPa | 0 mm | - | 576 W/m² | - |
| 1777819462 | 23.33° C | 46% | 1022.5 hPa | 0 mm | - | 556 W/m² | - |
| 1777819159 | 22.78° C | 48% | 1022.5 hPa | 0 mm | - | 537 W/m² | - |
| 1777818856 | 22.78° C | 47% | 1022.5 hPa | 0 mm | - | 520 W/m² | - |
| 1777818552 | 22.78° C | 49% | 1022.9 hPa | 0 mm | - | 500 W/m² | - |
| 1777818250 | 22.22° C | 52% | 1022.9 hPa | 0 mm | - | 480 W/m² | - |
| 1777817945 | 22.22° C | 52% | 1022.9 hPa | 0 mm | - | 454 W/m² | - |
| 1777817643 | 21.67° C | 55% | 1022.9 hPa | 0 mm | - | 440 W/m² | - |
| 1777817339 | 21.67° C | 56% | 1022.5 hPa | 0 mm | - | 420 W/m² | - |
| 1777817036 | 21.11° C | 57% | 1022.5 hPa | 0 mm | - | 399 W/m² | - |
| 1777816732 | 21.11° C | 58% | 1022.5 hPa | 0 mm | - | 378 W/m² | - |
* Rain latest hour (hover to see other rain measurements)
** Current wind speed in m/s (hover to see current wind gust speed)